Time,TemperatureF,DewpointF,PressureIn,WindDirection,WindDirectionDegrees,WindSpeedMPH,WindSpeedGustMPH,Humidity,HourlyPrecipIn,Conditions,Clouds,dailyrainin,SoftwareType,DateUTC
2013-03-27 00:02:00,42.0,24.0,-100.00,ENE,70,4.0,6.0,48,-99.99,,,-99.99,,2013-03-27 06:02:00,
2013-03-27 00:12:00,42.0,24.0,-100.00,East,95,2.0,6.0,47,-99.99,,,-99.99,,2013-03-27 06:12:00,
2013-03-27 00:22:00,42.0,24.0,-100.00,NNW,330,5.0,7.0,48,-99.99,,,-99.99,,2013-03-27 06:22:00,
2013-03-27 00:32:00,41.0,23.0,-100.00,South,185,2.0,6.0,49,-99.99,,,-99.99,,2013-03-27 06:32:00,
2013-03-27 00:42:00,40.0,24.0,-100.00,SE,125,1.0,2.0,52,-99.99,,,-99.99,,2013-03-27 06:42:00,
2013-03-27 00:52:00,40.0,24.0,-100.00,WNW,290,4.0,7.0,53,-99.99,,,-99.99,,2013-03-27 06:52:00,
2013-03-27 01:02:00,39.0,24.0,-100.00,NW,315,3.0,6.0,54,-99.99,,,-99.99,,2013-03-27 07:02:00,
2013-03-27 01:12:00,40.0,25.0,-100.00,West,260,2.0,4.0,55,-99.99,,,-99.99,,2013-03-27 07:12:00,
2013-03-27 01:22:00,39.0,25.0,-100.00,ENE,65,4.0,6.0,55,-99.99,,,-99.99,,2013-03-27 07:22:00,
2013-03-27 01:32:00,40.0,26.0,-100.00,ESE,110,1.0,9.0,55,-99.99,,,-99.99,,2013-03-27 07:32:00,
2013-03-27 01:42:00,40.0,25.0,-100.00,SSW,200,3.0,7.0,55,-99.99,,,-99.99,,2013-03-27 07:42:00,
2013-03-27 01:53:00,40.0,26.0,-100.00,North,0,5.0,9.0,56,-99.99,,,-99.99,,2013-03-27 07:53:00,
2013-03-27 02:02:00,41.0,25.0,-100.00,NE,40,10.0,12.0,51,-99.99,,,-99.99,,2013-03-27 08:02:00,
2013-03-27 02:12:00,42.0,25.0,-100.00,North,10,4.0,11.0,49,-99.99,,,-99.99,,2013-03-27 08:12:00,
2013-03-27 02:22:00,42.0,25.0,-100.00,West,270,14.0,17.0,49,-99.99,,,-99.99,,2013-03-27 08:22:00,
2013-03-27 02:32:00,43.0,25.0,-100.00,NW,320,6.0,12.0,48,-99.99,,,-99.99,,2013-03-27 08:32:00,
2013-03-27 02:43:00,46.0,28.0,-100.00,North,350,12.0,24.0,47,-99.99,,,-99.99,,2013-03-27 08:43:00,
2013-03-27 02:52:00,46.0,27.0,-100.00,NNW,345,7.0,14.0,47,-99.99,,,-99.99,,2013-03-27 08:52:00,
2013-03-27 03:01:00,46.0,27.0,-100.00,NE,35,9.0,14.0,48,-99.99,,,-99.99,,2013-03-27 09:01:00,
2013-03-27 03:11:00,45.0,27.0,-100.00,North,0,6.0,17.0,48,-99.99,,,-99.99,,2013-03-27 09:11:00,
2013-03-27 03:21:00,45.0,27.0,-100.00,SSW,210,4.0,11.0,49,-99.99,,,-99.99,,2013-03-27 09:21:00,
2013-03-27 03:32:00,43.0,26.0,-100.00,SW,220,6.0,8.0,51,-99.99,,,-99.99,,2013-03-27 09:32:00,
2013-03-27 03:42:00,43.0,26.0,-100.00,WSW,255,7.0,9.0,52,-99.99,,,-99.99,,2013-03-27 09:42:00,
2013-03-27 03:52:00,42.0,26.0,-100.00,WSW,255,3.0,9.0,52,-99.99,,,-99.99,,2013-03-27 09:52:00,
2013-03-27 04:02:00,41.0,26.0,-100.00,SW,225,2.0,5.0,53,-99.99,,,-99.99,,2013-03-27 10:02:00,
2013-03-27 04:12:00,41.0,26.0,-100.00,SW,235,2.0,4.0,54,-99.99,,,-99.99,,2013-03-27 10:12:00,
2013-03-27 04:22:00,41.0,26.0,-100.00,NW,325,0.0,3.0,56,-99.99,,,-99.99,,2013-03-27 10:22:00,
2013-03-27 04:32:00,40.0,26.0,-100.00,NE,40,2.0,3.0,57,-99.99,,,-99.99,,2013-03-27 10:32:00,
2013-03-27 04:42:00,40.0,26.0,-100.00,East,85,4.0,6.0,57,-99.99,,,-99.99,,2013-03-27 10:42:00,
2013-03-27 04:52:00,40.0,27.0,-100.00,SE,125,3.0,5.0,58,-99.99,,,-99.99,,2013-03-27 10:52:00,
2013-03-27 05:02:00,39.0,27.0,-100.00,SSE,160,2.0,5.0,60,-99.99,,,-99.99,,2013-03-27 11:02:00,
2013-03-27 05:11:00,39.0,27.0,-100.00,ESE,120,0.0,3.0,61,-99.99,,,-99.99,,2013-03-27 11:11:00,
2013-03-27 05:22:00,39.0,27.0,-100.00,East,95,2.0,2.0,61,-99.99,,,-99.99,,2013-03-27 11:22:00,
2013-03-27 05:32:00,38.0,27.0,-100.00,SSE,150,2.0,4.0,62,-99.99,,,-99.99,,2013-03-27 11:32:00,
2013-03-27 05:42:00,37.0,26.0,-100.00,South,185,5.0,6.0,61,-99.99,,,-99.99,,2013-03-27 11:42:00,
2013-03-27 05:52:00,37.0,25.0,-100.00,South,170,1.0,6.0,61,-99.99,,,-99.99,,2013-03-27 11:52:00,
2013-03-27 06:02:00,36.0,25.0,-100.00,SE,125,4.0,5.0,63,-99.99,,,-99.99,,2013-03-27 12:02:00,
2013-03-27 06:12:00,36.0,25.0,-100.00,East,85,4.0,5.0,64,-99.99,,,-99.99,,2013-03-27 12:12:00,
2013-03-27 06:22:00,36.0,25.0,-100.00,East,95,2.0,6.0,65,-99.99,,,-99.99,,2013-03-27 12:22:00,
2013-03-27 06:32:00,36.0,25.0,-100.00,NE,45,0.0,4.0,65,-99.99,,,-99.99,,2013-03-27 12:32:00,
2013-03-27 06:42:00,34.0,24.0,-100.00,ESE,105,2.0,2.0,66,-99.99,,,-99.99,,2013-03-27 12:42:00,
2013-03-27 06:52:00,34.0,24.0,-100.00,ESE,115,1.0,2.0,68,-99.99,,,-99.99,,2013-03-27 12:52:00,
2013-03-27 07:02:00,34.0,25.0,-100.00,East,85,3.0,4.0,70,-99.99,,,-99.99,,2013-03-27 13:02:00,
2013-03-27 07:12:00,33.0,25.0,-100.00,NE,55,1.0,4.0,72,-99.99,,,-99.99,,2013-03-27 13:12:00,
2013-03-27 07:21:00,33.0,25.0,-100.00,ENE,60,1.0,3.0,73,-99.99,,,-99.99,,2013-03-27 13:21:00,
2013-03-27 07:32:00,32.0,25.0,-100.00,NNW,345,0.0,2.0,73,-99.99,,,-99.99,,2013-03-27 13:32:00,
2013-03-27 07:42:00,33.0,26.0,-100.00,NW,320,0.0,2.0,75,-99.99,,,-99.99,,2013-03-27 13:42:00,
2013-03-27 07:52:00,33.0,27.0,-100.00,West,265,0.0,2.0,76,-99.99,,,-99.99,,2013-03-27 13:52:00,
2013-03-27 08:02:00,34.0,27.0,-100.00,SSE,155,1.0,2.0,76,-99.99,,,-99.99,,2013-03-27 14:02:00,
2013-03-27 08:11:00,35.0,28.0,-100.00,SSE,155,1.0,2.0,76,-99.99,,,-99.99,,2013-03-27 14:11:00,
2013-03-27 08:21:00,37.0,29.0,-100.00,ENE,75,3.0,4.0,73,-99.99,,,-99.99,,2013-03-27 14:21:00,
2013-03-27 08:32:00,37.0,29.0,-100.00,ENE,75,2.0,4.0,71,-99.99,,,-99.99,,2013-03-27 14:32:00,
2013-03-27 08:42:00,40.0,30.0,-100.00,SSW,200,0.0,1.0,68,-99.99,,,-99.99,,2013-03-27 14:42:00,
2013-03-27 08:52:00,41.0,29.0,-100.00,NNW,330,0.0,1.0,63,-99.99,,,-99.99,,2013-03-27 14:52:00,
2013-03-27 09:02:00,42.0,29.0,-100.00,NNE,25,1.0,2.0,61,-99.99,,,-99.99,,2013-03-27 15:02:00,
2013-03-27 09:11:00,44.0,29.0,-100.00,NNE,25,0.0,3.0,57,-99.99,,,-99.99,,2013-03-27 15:11:00,
2013-03-27 09:22:00,46.0,30.0,-100.00,SSW,195,1.0,4.0,54,-99.99,,,-99.99,,2013-03-27 15:22:00,
2013-03-27 09:32:00,46.0,29.0,-100.00,SE,130,2.0,4.0,50,-99.99,,,-99.99,,2013-03-27 15:32:00,
2013-03-27 09:42:00,46.0,28.0,-100.00,East,100,3.0,5.0,49,-99.99,,,-99.99,,2013-03-27 15:42:00,
2013-03-27 09:52:00,47.0,29.0,-100.00,ESE,105,2.0,4.0,48,-99.99,,,-99.99,,2013-03-27 15:52:00,
2013-03-27 10:02:00,48.0,29.0,-100.00,NE,55,2.0,4.0,46,-99.99,,,-99.99,,2013-03-27 16:02:00,
2013-03-27 10:12:00,50.0,30.0,-100.00,SSE,160,1.0,4.0,45,-99.99,,,-99.99,,2013-03-27 16:12:00,
2013-03-27 10:22:00,52.0,30.0,-100.00,SSE,155,2.0,4.0,43,-99.99,,,-99.99,,2013-03-27 16:22:00,
2013-03-27 10:32:00,53.0,29.0,-100.00,East,100,4.0,5.0,40,-99.99,,,-99.99,,2013-03-27 16:32:00,
2013-03-27 10:42:00,53.0,30.0,-100.00,South,170,1.0,6.0,40,-99.99,,,-99.99,,2013-03-27 16:42:00,
2013-03-27 10:52:00,55.0,30.0,-100.00,SSW,195,1.0,4.0,38,-99.99,,,-99.99,,2013-03-27 16:52:00,
2013-03-27 11:02:00,55.0,30.0,-100.00,East,90,1.0,4.0,37,-99.99,,,-99.99,,2013-03-27 17:02:00,
2013-03-27 11:11:00,56.0,30.0,-100.00,SE,125,3.0,6.0,36,-99.99,,,-99.99,,2013-03-27 17:11:00,
2013-03-27 11:22:00,57.0,30.0,-100.00,South,180,2.0,6.0,35,-99.99,,,-99.99,,2013-03-27 17:22:00,
2013-03-27 11:32:00,58.0,30.0,-100.00,SW,220,2.0,6.0,34,-99.99,,,-99.99,,2013-03-27 17:32:00,
2013-03-27 11:44:00,57.0,29.0,-100.00,SE,145,3.0,6.0,33,-99.99,,,-99.99,,2013-03-27 17:44:00,
2013-03-27 11:52:00,58.0,29.0,-100.00,SW,225,2.0,4.0,32,-99.99,,,-99.99,,2013-03-27 17:52:00,
2013-03-27 12:02:00,59.0,29.0,-100.00,SW,225,2.0,4.0,31,-99.99,,,-99.99,,2013-03-27 18:02:00,
2013-03-27 12:12:00,60.0,29.0,-100.00,South,190,2.0,4.0,30,-99.99,,,-99.99,,2013-03-27 18:12:00,
2013-03-27 12:22:00,61.0,28.0,-100.00,ESE,115,1.0,4.0,28,-99.99,,,-99.99,,2013-03-27 18:22:00,
2013-03-27 12:32:00,61.0,28.0,-100.00,SSW,210,3.0,5.0,27,-99.99,,,-99.99,,2013-03-27 18:32:00,
2013-03-27 12:42:00,61.0,28.0,-100.00,West,280,2.0,6.0,27,-99.99,,,-99.99,,2013-03-27 18:42:00,
2013-03-27 12:52:00,61.0,28.0,-100.00,SSE,150,2.0,6.0,27,-99.99,,,-99.99,,2013-03-27 18:52:00,
2013-03-27 13:02:00,61.0,27.0,-100.00,West,270,6.0,9.0,27,-99.99,,,-99.99,,2013-03-27 19:02:00,
2013-03-27 13:12:00,61.0,26.0,-100.00,WNW,285,4.0,10.0,26,-99.99,,,-99.99,,2013-03-27 19:12:00,
2013-03-27 13:21:00,61.0,26.0,-100.00,WSW,245,6.0,15.0,26,-99.99,,,-99.99,,2013-03-27 19:21:00,
2013-03-27 13:32:00,62.0,26.0,-100.00,WNW,285,5.0,12.0,25,-99.99,,,-99.99,,2013-03-27 19:32:00,
2013-03-27 13:42:00,62.0,24.0,-100.00,WNW,300,11.0,14.0,24,-99.99,,,-99.99,,2013-03-27 19:42:00,
2013-03-27 13:52:00,62.0,25.0,-100.00,WNW,295,10.0,19.0,24,-99.99,,,-99.99,,2013-03-27 19:52:00,
2013-03-27 14:02:00,63.0,26.0,-100.00,NW,305,8.0,13.0,24,-99.99,,,-99.99,,2013-03-27 20:02:00,
2013-03-27 14:12:00,64.0,26.0,-100.00,WNW,290,7.0,15.0,23,-99.99,,,-99.99,,2013-03-27 20:12:00,
2013-03-27 14:22:00,63.0,24.0,-100.00,West,260,11.0,15.0,22,-99.99,,,-99.99,,2013-03-27 20:22:00,
2013-03-27 14:32:00,63.0,24.0,-100.00,West,260,9.0,19.0,22,-99.99,,,-99.99,,2013-03-27 20:32:00,
2013-03-27 14:42:00,63.0,23.0,-100.00,WSW,255,9.0,20.0,21,-99.99,,,-99.99,,2013-03-27 20:42:00,
2013-03-27 14:52:00,64.0,24.0,-100.00,West,270,5.0,19.0,21,-99.99,,,-99.99,,2013-03-27 20:52:00,
2013-03-27 15:02:00,64.0,23.0,-100.00,West,280,11.0,19.0,20,-99.99,,,-99.99,,2013-03-27 21:02:00,
2013-03-27 15:12:00,64.0,22.0,-100.00,West,275,14.0,22.0,20,-99.99,,,-99.99,,2013-03-27 21:12:00,
2013-03-27 15:22:00,65.0,23.0,-100.00,West,280,16.0,24.0,20,-99.99,,,-99.99,,2013-03-27 21:22:00,
2013-03-27 15:32:00,64.0,22.0,-100.00,West,280,16.0,21.0,20,-99.99,,,-99.99,,2013-03-27 21:32:00,
2013-03-27 15:42:00,64.0,22.0,-100.00,WNW,285,16.0,25.0,20,-99.99,,,-99.99,,2013-03-27 21:42:00,
2013-03-27 15:52:00,65.0,23.0,-100.00,NW,305,14.0,21.0,20,-99.99,,,-99.99,,2013-03-27 21:52:00,
2013-03-27 16:02:00,64.0,22.0,-100.00,NW,320,13.0,21.0,20,-99.99,,,-99.99,,2013-03-27 22:02:00,
2013-03-27 16:12:00,65.0,23.0,-100.00,WNW,295,14.0,17.0,20,-99.99,,,-99.99,,2013-03-27 22:12:00,
2013-03-27 16:23:00,64.0,22.0,-100.00,West,270,9.0,18.0,20,-99.99,,,-99.99,,2013-03-27 22:23:00,
2013-03-27 16:32:00,66.0,24.0,-100.00,NW,305,10.0,17.0,20,-99.99,,,-99.99,,2013-03-27 22:32:00,
2013-03-27 16:42:00,65.0,23.0,-100.00,West,260,16.0,22.0,19,-99.99,,,-99.99,,2013-03-27 22:42:00,
2013-03-27 16:52:00,65.0,22.0,-100.00,WNW,290,9.0,16.0,19,-99.99,,,-99.99,,2013-03-27 22:52:00,
2013-03-27 17:02:00,65.0,23.0,-100.00,West,260,12.0,17.0,19,-99.99,,,-99.99,,2013-03-27 23:02:00,
2013-03-27 17:11:00,65.0,22.0,-100.00,West,265,14.0,19.0,19,-99.99,,,-99.99,,2013-03-27 23:11:00,
2013-03-27 17:22:00,63.0,21.0,-100.00,West,260,12.0,19.0,19,-99.99,,,-99.99,,2013-03-27 23:22:00,
2013-03-27 17:32:00,65.0,22.0,-100.00,SSW,210,4.0,18.0,19,-99.99,,,-99.99,,2013-03-27 23:32:00,
2013-03-27 17:42:00,65.0,22.0,-100.00,NW,310,7.0,14.0,18,-99.99,,,-99.99,,2013-03-27 23:42:00,
2013-03-27 17:51:00,65.0,20.0,-100.00,West,270,11.0,15.0,18,-99.99,,,-99.99,,2013-03-27 23:51:00,
2013-03-27 18:01:00,65.0,21.0,-100.00,WNW,290,14.0,19.0,18,-99.99,,,-99.99,,2013-03-28 00:01:00,
2013-03-27 18:12:00,64.0,20.0,-100.00,West,270,14.0,21.0,18,-99.99,,,-99.99,,2013-03-28 00:12:00,
2013-03-27 18:22:00,63.0,19.0,-100.00,West,275,12.0,20.0,18,-99.99,,,-99.99,,2013-03-28 00:22:00,
2013-03-27 18:32:00,64.0,19.0,-100.00,West,280,11.0,17.0,17,-99.99,,,-99.99,,2013-03-28 00:32:00,
2013-03-27 18:42:00,64.0,19.0,-100.00,WNW,295,11.0,16.0,17,-99.99,,,-99.99,,2013-03-28 00:42:00,
2013-03-27 18:51:00,63.0,18.0,-100.00,WNW,295,12.0,16.0,17,-99.99,,,-99.99,,2013-03-28 00:51:00,
2013-03-27 19:02:00,63.0,18.0,-100.00,NW,305,4.0,14.0,17,-99.99,,,-99.99,,2013-03-28 01:02:00,
2013-03-27 19:11:00,62.0,18.0,-100.00,WNW,295,9.0,14.0,18,-99.99,,,-99.99,,2013-03-28 01:11:00,
2013-03-27 19:21:00,62.0,18.0,-100.00,WNW,295,4.0,13.0,18,-99.99,,,-99.99,,2013-03-28 01:21:00,
2013-03-27 19:32:00,61.0,18.0,-100.00,WNW,300,4.0,9.0,18,-99.99,,,-99.99,,2013-03-28 01:32:00,
2013-03-27 19:42:00,59.0,18.0,-100.00,NW,305,4.0,7.0,19,-99.99,,,-99.99,,2013-03-28 01:42:00,
2013-03-27 19:52:00,57.0,18.0,-100.00,NW,320,2.0,7.0,21,-99.99,,,-99.99,,2013-03-28 01:52:00,
2013-03-27 20:02:00,56.0,18.0,-100.00,NNW,340,3.0,4.0,22,-99.99,,,-99.99,,2013-03-28 02:02:00,
2013-03-27 20:12:00,54.0,17.0,-100.00,NW,315,1.0,3.0,23,-99.99,,,-99.99,,2013-03-28 02:12:00,
2013-03-27 20:22:00,54.0,18.0,-100.00,NW,310,1.0,4.0,24,-99.99,,,-99.99,,2013-03-28 02:22:00,
2013-03-27 20:32:00,51.0,18.0,-100.00,South,185,1.0,3.0,26,-99.99,,,-99.99,,2013-03-28 02:32:00,
2013-03-27 20:42:00,51.0,18.0,-100.00,South,185,1.0,3.0,26,-99.99,,,-99.99,,2013-03-28 02:42:00,
2013-03-27 20:51:00,51.0,18.0,-100.00,South,185,1.0,3.0,26,-99.99,,,-99.99,,2013-03-28 02:51:00,
2013-03-27 21:02:00,47.0,19.0,-100.00,SE,125,3.0,4.0,31,-99.99,,,-99.99,,2013-03-28 03:02:00,
2013-03-27 21:12:00,47.0,19.0,-100.00,SE,130,4.0,6.0,32,-99.99,,,-99.99,,2013-03-28 03:12:00,
2013-03-27 21:22:00,48.0,20.0,-100.00,ESE,110,5.0,7.0,32,-99.99,,,-99.99,,2013-03-28 03:22:00,
2013-03-27 21:32:00,47.0,20.0,-100.00,ESE,120,7.0,9.0,33,-99.99,,,-99.99,,2013-03-28 03:32:00,
2013-03-27 21:42:00,47.0,20.0,-100.00,SE,145,7.0,10.0,34,-99.99,,,-99.99,,2013-03-28 03:42:00,
2013-03-27 21:52:00,46.0,20.0,-100.00,East,100,4.0,6.0,35,-99.99,,,-99.99,,2013-03-28 03:52:00,
2013-03-27 22:02:00,45.0,21.0,-100.00,East,100,5.0,7.0,38,-99.99,,,-99.99,,2013-03-28 04:02:00,
2013-03-27 22:12:00,44.0,21.0,-100.00,SSE,165,3.0,6.0,40,-99.99,,,-99.99,,2013-03-28 04:12:00,
2013-03-27 22:22:00,43.0,21.0,-100.00,NNW,340,0.0,1.0,41,-99.99,,,-99.99,,2013-03-28 04:22:00,
2013-03-27 22:32:00,42.0,20.0,-100.00,ESE,105,2.0,3.0,41,-99.99,,,-99.99,,2013-03-28 04:32:00,
2013-03-27 22:42:00,42.0,20.0,-100.00,East,95,4.0,4.0,41,-99.99,,,-99.99,,2013-03-28 04:42:00,
2013-03-27 22:52:00,41.0,20.0,-100.00,SE,135,2.0,4.0,41,-99.99,,,-99.99,,2013-03-28 04:52:00,
2013-03-27 23:02:00,42.0,20.0,-100.00,SE,125,3.0,4.0,41,-99.99,,,-99.99,,2013-03-28 05:02:00,
2013-03-27 23:12:00,41.0,20.0,-100.00,East,100,6.0,6.0,43,-99.99,,,-99.99,,2013-03-28 05:12:00,
2013-03-27 23:22:00,41.0,20.0,-100.00,East,80,5.0,7.0,43,-99.99,,,-99.99,,2013-03-28 05:22:00,
2013-03-27 23:31:00,40.0,20.0,-100.00,East,95,4.0,6.0,44,-99.99,,,-99.99,,2013-03-28 05:31:00,
2013-03-27 23:42:00,40.0,20.0,-100.00,ESE,110,4.0,5.0,44,-99.99,,,-99.99,,2013-03-28 05:42:00,
2013-03-27 23:51:00,39.0,21.0,-100.00,ESE,105,5.0,6.0,47,-99.99,,,-99.99,,2013-03-28 05:51:00,